Location: ??????????
(48.4699°N, 37.9573°E)
Time: 20:47:19
(UTC+00:00)

Cosmos 2227 Rocket - Pass Details

Date: 20 January 2021
Orbit: 837 x 846 km, 71.0° (Epoch: 02 March)

Event Time Altitude Azimuth Distance (km) Brightness Sun altitude
Rises 14:36:40 0° 241° (WSW) 3,392 8.2 -5.0°
Reaches altitude 10° 14:39:25 10° 253° (WSW) 2,462 6.5 -5.4°
Maximum altitude 14:44:19 29° 313° (NW) 1,497 3.8 -6.2°
Drops below altitude 10° 14:49:15 10° 13° (NNE) 2,478 4.3 -6.9°
Sets 14:52:02 0° 24° (NNE) 3,418 4.9 -7.4°
